DW5164 Weather Reports


Display with metric or nautical units.
time (UTC)temp
F
wind
direction
speed
MPH
gust
MPH
rain 1hr
in
rain 24hr
in
rain mn
in
humidity
%
barometer
mb
20260906195941 79 94 2.0 5.0 0.00 0.00 0.00 77 1020.7
20260906195441 79 88 2.0 5.0 0.00 0.00 0.00 77 1020.6
20260906194941 80 83 1.0 3.0 0.00 0.00 0.00 77 1020.6
20260906194442 80 83 2.0 3.0 0.00 0.00 0.00 76 1020.6
20260906193941 80 79 2.0 3.0 0.00 0.00 0.00 76 1020.6
20260906193441 80 87 2.0 5.0 0.00 0.00 0.00 76 1020.5
20260906192442 81 95 2.0 6.0 0.00 0.00 0.00 75 1020.4
20260906191941 81 95 3.0 5.0 0.00 0.00 0.00 75 1020.4
20260906191441 81 78 2.0 5.0 0.00 0.00 0.00 74 1020.3
20260906190941 81 84 2.0 5.0 0.00 0.00 0.00 74 1020.2
20260906190442 81 76 2.0 5.0 0.00 0.00 0.00 74 1020.2
20260906185941 81 81 3.0 5.0 0.00 0.00 0.00 73 1020.1
20260906185441 81 84 3.0 5.0 0.00 0.00 0.00 73 1020.1
20260906184941 82 82 2.0 5.0 0.00 0.00 0.00 72 1020.0
20260906184441 82 82 2.0 5.0 0.00 0.00 0.00 72 1019.9
20260906183941 82 80 3.0 5.0 0.00 0.00 0.00 71 1019.9
20260906183441 82 68 3.0 5.0 0.00 0.00 0.00 71 1019.8
20260906182941 82 71 3.0 5.0 0.00 0.00 0.00 71 1019.8
20260906181941 82 74 2.0 3.0 0.00 0.00 0.00 70 1019.7
20260906181441 82 74 2.0 3.0 0.00 0.00 0.00 70 1019.7
20260906180942 83 73 2.0 3.0 0.00 0.00 0.00 70 1019.6
20260906180441 83 73 2.0 3.0 0.00 0.00 0.00 70 1019.6
20260906175941 83 73 2.0 3.0 0.00 0.00 0.00 70 1019.5
20260906175441 83 67 2.0 3.0 0.00 0.00 0.00 69 1019.5
20260906174941 84 73 2.0 3.0 0.00 0.00 0.00 68 1019.4
20260906174441 84 63 2.0 3.0 0.00 0.00 0.00 68 1019.3
20260906173942 84 76 2.0 3.0 0.00 0.00 0.00 66 1019.3
20260906173441 85 76 1.0 3.0 0.00 0.00 0.00 66 1019.3
20260906171941 85 74 2.0 5.0 0.00 0.00 0.00 66 1019.3
20260906171442 86 80 1.0 3.0 0.00 0.00 0.00 65 1019.2
20260906170943 86 75 2.0 3.0 0.00 0.00 0.00 64 1019.2
20260906170441 86 73 1.0 3.0 0.00 0.00 0.00 64 1019.2
20260906165441 87 87 1.0 5.0 0.00 0.00 0.00 64 1019.2
20260906164940 87 77 2.0 5.0 0.00 0.00 0.00 64 1019.2
20260906164441 87 93 2.0 5.0 0.00 0.00 0.00 63 1019.2
20260906163941 88 51 2.0 3.0 0.00 0.00 0.00 61 1019.1
20260906163441 88 55 2.0 5.0 0.00 0.00 0.00 61 1019.1
20260906162941 88 74 3.0 5.0 0.00 0.00 0.00 60 1019.2
20260906162441 88 80 2.0 5.0 0.00 0.00 0.00 62 1019.2
20260906161940 88 86 2.0 5.0 0.00 0.00 0.00 61 1019.1
20260906160942 88 100 3.0 5.0 0.00 0.00 0.00 62 1019.1
20260906160440 89 76 3.0 5.0 0.00 0.00 0.00 60 1019.2
20260906155940 88 93 3.0 6.0 0.00 0.00 0.00 60 1019.1
20260906155441 89 109 5.0 7.0 0.00 0.00 0.00 59 1019.1
20260906154940 89 110 5.0 7.0 0.00 0.00 0.00 58 1019.1
20260906154440 89 97 3.0 5.0 0.00 0.00 0.00 59 1019.1
20260906153942 89 77 3.0 5.0 0.00 0.00 0.00 57 1019.2
20260906153440 89 83 4.0 6.0 0.00 0.00 0.00 59 1019.2
20260906152941 89 111 4.0 7.0 0.00 0.00 0.00 58 1019.2
20260906152440 89 118 4.0 9.0 0.00 0.00 0.00 59 1019.2
20260906151940 90 85 3.0 7.0 0.00 0.00 0.00 57 1019.2
20260906151440 90 72 6.0 9.0 0.00 0.00 0.00 57 1019.3
20260906150940 90 97 5.0 8.0 0.00 0.00 0.00 57 1019.3
20260906145941 90 97 3.0 6.0 0.00 0.00 0.00 57 1019.3
20260906144940 90 82 5.0 8.0 0.00 0.00 0.00 58 1019.4
20260906144440 89 101 6.0 9.0 0.00 0.00 0.00 57 1019.4
20260906143942 89 93 6.0 9.0 0.00 0.00 0.00 58 1019.4
20260906142940 89 100 4.0 9.0 0.00 0.00 0.00 58 1019.5
20260906142442 90 101 3.0 9.0 0.00 0.00 0.00 58 1019.5
20260906141940 90 74 5.0 8.0 0.00 0.00 0.00 57 1019.5
20260906141440 90 103 2.0 7.0 0.00 0.00 0.00 57 1019.5
20260906140940 90 110 5.0 9.0 0.00 0.00 0.00 57 1019.6
20260906140441 90 79 5.0 9.0 0.00 0.00 0.00 57 1019.6
20260906135940 90 118 6.0 8.0 0.00 0.00 0.00 56 1019.6
20260906135441 90 89 4.0 7.0 0.00 0.00 0.00 57 1019.6
20260906134940 89 91 5.0 8.0 0.00 0.00 0.00 57 1019.6
20260906134440 89 125 5.0 8.0 0.00 0.00 0.00 57 1019.6
20260906133940 89 104 5.0 8.0 0.00 0.00 0.00 57 1019.7
20260906133440 89 117 6.0 10.0 0.00 0.00 0.00 58 1019.7
20260906132940 89 126 7.0 12.0 0.00 0.00 0.00 56 1019.8
20260906131940 89 79 6.0 12.0 0.00 0.00 0.00 57 1019.8
20260906131440 89 107 8.0 13.0 0.00 0.00 0.00 57 1019.8
20260906130941 89 64 6.0 12.0 0.00 0.00 0.00 58 1019.9
20260906125940 89 74 6.0 12.0 0.00 0.00 0.00 58 1020.0
20260906125441 89 75 3.0 7.0 0.00 0.00 0.00 58 1020.0
20260906124940 89 116 5.0 12.0 0.00 0.00 0.00 57 1020.1
20260906124440 89 85 6.0 12.0 0.00 0.00 0.00 56 1020.1
20260906123941 89 108 5.0 10.0 0.00 0.00 0.00 57 1020.1
20260906123440 89 114 6.0 12.0 0.00 0.00 0.00 60 1020.1
20260906122440 89 87 7.0 10.0 0.00 0.00 0.00 56 1020.2
20260906121940 89 91 6.0 10.0 0.00 0.00 0.00 59 1020.2
20260906121440 88 80 7.0 12.0 0.00 0.00 0.00 59 1020.2
20260906120939 88 130 7.0 12.0 0.00 0.00 0.00 59 1020.2
20260906120440 88 115 5.0 10.0 0.00 0.00 0.00 60 1020.3
20260906115940 88 92 8.0 12.0 0.00 0.00 0.00 59 1020.2
20260906115440 88 98 7.0 10.0 0.00 0.00 0.00 59 1020.3
20260906114941 88 80 4.0 10.0 0.00 0.00 0.00 60 1020.3
20260906114440 88 142 5.0 8.0 0.00 0.00 0.00 59 1020.3
20260906113440 87 138 7.0 10.0 0.00 0.00 0.00 59 1020.4
20260906112439 87 103 6.0 13.0 0.00 0.00 0.00 59 1020.4
20260906111940 87 101 6.0 13.0 0.00 0.00 0.00 59 1020.3
20260906111441 87 71 6.0 12.0 0.00 0.00 0.00 61 1020.4
20260906110941 87 100 3.0 10.0 0.00 0.00 0.00 59 1020.4
20260906105940 87 84 7.0 14.0 0.00 0.00 0.00 61 1020.5
20260906105439 86 60 7.0 13.0 0.00 0.00 0.00 62 1020.5
20260906104940 86 100 9.0 13.0 0.00 0.00 0.00 62 1020.5
20260906104439 86 100 9.0 13.0 0.00 0.00 0.00 61 1020.5
20260906103940 86 87 7.0 14.0 0.00 0.00 0.00 61 1020.5
20260906103440 86 112 10.0 14.0 0.00 0.00 0.00 61 1020.5
20260906102940 85 116 6.0 10.0 0.00 0.00 0.00 61 1020.6
20260906101939 85 82 9.0 13.0 0.00 0.00 0.00 62 1020.6
20260906101440 86 131 8.0 12.0 0.00 0.00 0.00 63 1020.7
20260906100939 85 103 8.0 13.0 0.00 0.00 0.00 63 1020.8
20260906100439 85 108 7.0 15.0 0.00 0.00 0.00 62 1020.8
20260906095939 85 105 7.0 12.0 0.00 0.00 0.00 64 1020.8
20260906094940 85 90 9.0 13.0 0.00 0.00 0.00 61 1020.8
20260906094440 85 78 10.0 16.0 0.00 0.00 0.00 61 1020.9
20260906093940 85 89 8.0 14.0 0.00 0.00 0.00 58 1020.9
20260906092439 85 71 12.0 18.0 0.00 0.00 0.00 55 1020.9
20260906091940 85 73 10.0 17.0 0.00 0.00 0.00 57 1021.0
20260906090940 84 75 7.0 18.0 0.00 0.00 0.00 57 1021.0
20260906090439 84 105 11.0 22.0 0.00 0.00 0.00 56 1021.0
20260906085940 84 77 13.0 18.0 0.00 0.00 0.00 55 1021.0
20260906085439 84 79 6.0 10.0 0.00 0.00 0.00 60 1021.0
20260906084940 84 86 9.0 13.0 0.00 0.00 0.00 60 1021.0
20260906084440 84 62 9.0 13.0 0.00 0.00 0.00 59 1021.0
20260906083940 83 97 9.0 15.0 0.00 0.00 0.00 60 1021.0
20260906083439 83 99 11.0 17.0 0.00 0.00 0.00 61 1020.9
20260906082439 83 93 7.0 13.0 0.00 0.00 0.00 62 1020.8
20260906081939 83 88 7.0 14.0 0.00 0.00 0.00 62 1020.8
20260906081440 82 91 10.0 16.0 0.00 0.00 0.00 62 1020.7
20260906080939 82 99 6.0 10.0 0.00 0.00 0.00 65 1020.7
20260906080439 82 91 6.0 10.0 0.00 0.00 0.00 65 1020.6
20260906075940 81 113 8.0 13.0 0.00 0.00 0.00 66 1020.6
20260906075440 81 98 6.0 13.0 0.00 0.00 0.00 67 1020.7
20260906074939 80 103 9.0 13.0 0.00 0.00 0.00 67 1020.7
20260906073940 80 116 6.0 9.0 0.00 0.00 0.00 72 1020.7
20260906073440 79 115 4.0 7.0 0.00 0.00 0.00 72 1020.7
20260906072939 79 115 6.0 9.0 0.00 0.00 0.00 72 1020.6
20260906072439 79 115 4.0 7.0 0.00 0.00 0.00 72 1020.6
20260906071939 79 98 4.0 7.0 0.00 0.00 0.00 74 1020.6
20260906070940 78 106 3.0 8.0 0.00 0.00 0.00 74 1020.5
20260906070440 78 134 2.0 3.0 0.00 0.00 0.00 75 1020.5
20260906065939 77 91 3.0 5.0 0.00 0.00 0.00 75 1020.5
20260906065438 77 96 4.0 7.0 0.00 0.00 0.00 75 1020.4
20260906064941 77 62 2.0 5.0 0.00 0.00 0.00 78 1020.3
20260906064439 76 100 3.0 5.0 0.00 0.00 0.00 77 1020.3
20260906063940 76 109 4.0 7.0 0.00 0.00 0.00 77 1020.2
20260906063439 76 136 3.0 7.0 0.00 0.00 0.00 77 1020.2
20260906062438 76 102 4.0 8.0 0.00 0.00 0.00 79 1020.1
20260906061939 75 109 3.0 5.0 0.00 0.00 0.00 80 1020.1
20260906061439 75 110 2.0 5.0 0.00 0.00 0.00 80 1020.0
20260906060939 75 101 2.0 5.0 0.00 0.00 0.00 80 1020.0
20260906060439 74 96 1.0 3.0 0.00 0.00 0.00 80 1019.9
20260906055940 74 111 0.0 2.0 0.00 0.00 0.00 81 1019.8
20260906055440 74 123 0.0 1.0 0.00 0.00 0.00 81 1019.8
20260906054939 73 121 2.0 5.0 0.00 0.00 0.00 80 1019.8
20260906054439 73 112 3.0 5.0 0.00 0.00 0.00 81 1019.7
20260906053939 73 104 2.0 5.0 0.00 0.00 0.00 81 1019.6
20260906053439 73 85 2.0 3.0 0.00 0.00 0.00 83 1019.6
20260906052938 73 84 1.0 3.0 0.00 0.00 0.00 83 1019.5
20260906052439 72 84 2.0 3.0 0.00 0.00 0.00 84 1019.5
20260906051440 71 86 2.0 5.0 0.00 0.00 0.00 86 1019.3
20260906050941 72 89 2.0 3.0 0.00 0.00 0.00 86 1019.2
20260906050439 72 101 2.0 3.0 0.00 0.00 0.00 86 1019.3
20260906045939 72 108 1.0 2.0 0.00 0.00 0.00 87 1019.2
20260906045439 72 111 1.0 3.0 0.00 0.00 0.00 87 1019.1
20260906044439 72 72 3.0 3.0 0.00 0.00 0.00 87 1019.0
20260906043939 72 81 2.0 3.0 0.00 0.00 0.00 88 1018.9
20260906043438 72 71 2.0 3.0 0.00 0.00 0.00 88 1019.0
20260906042939 72 79 2.0 3.0 0.00 0.00 0.00 88 1018.9
20260906042440 72 86 0.0 0.0 0.00 0.00 0.00 88 1018.9
20260906041938 73 86 0.0 0.0 0.00 0.00 0.00 87 1018.9
20260906041439 73 86 0.0 0.0 0.00 0.00 0.00 87 1018.9
20260906040940 73 86 0.0 1.0 0.00 0.00 0.00 87 1018.8
20260906040438 73 86 2.0 3.0 0.00 0.00 0.00 87 1018.7
20260906035439 73 78 3.0 6.0 0.00 0.00 0.00 87 1018.6
20260906034439 73 74 3.0 6.0 0.00 0.00 0.00 87 1018.5
20260906033938 73 98 2.0 5.0 0.00 0.00 0.00 87 1018.5
20260906033438 73 85 3.0 6.0 0.00 0.00 0.00 87 1018.4
20260906032939 74 88 3.0 6.0 0.00 0.00 0.00 87 1018.4
20260906031939 74 93 2.0 5.0 0.00 0.00 0.00 86 1018.3
20260906031438 74 84 2.0 5.0 0.00 0.00 0.00 86 1018.3
20260906030940 74 79 4.0 7.0 0.00 0.00 0.00 86 1018.3
20260906030439 74 90 3.0 6.0 0.00 0.00 0.00 86 1018.3
20260906025439 74 67 5.0 8.0 0.00 0.00 0.00 85 1018.3
20260906024439 75 62 6.0 9.0 0.00 0.00 0.00 85 1018.3
20260906023438 75 65 5.0 9.0 0.00 0.00 0.00 84 1018.3
20260906022438 75 77 7.0 9.0 0.00 0.00 0.00 84 1018.3
20260906021938 75 76 6.0 9.0 0.00 0.00 0.00 83 1018.2
20260906021438 76 81 7.0 10.0 0.00 0.00 0.00 83 1018.1
20260906020938 76 69 6.0 13.0 0.00 0.00 0.00 83 1018.1
20260906020438 76 70 7.0 14.0 0.00 0.00 0.00 83 1018.1
20260906014939 76 74 7.0 12.0 0.00 0.00 0.00 83 1018.1
20260906014438 76 71 7.0 12.0 0.00 0.00 0.00 84 1018.0
20260906013938 76 69 8.0 12.0 0.00 0.00 0.00 85 1018.0
20260906012940 75 68 7.0 10.0 0.00 0.00 0.00 87 1018.0
20260906012439 75 60 6.0 8.0 0.00 0.00 0.00 88 1017.9
20260906011938 75 61 4.0 8.0 0.00 0.00 0.00 88 1017.9
20260906010938 75 66 5.0 7.0 0.00 0.00 0.00 88 1017.9
20260906010438 75 65 3.0 5.0 0.00 0.00 0.00 88 1017.8
20260906005939 75 63 3.0 6.0 0.00 0.00 0.00 88 1017.8
20260906004938 75 57 4.0 7.0 0.00 0.00 0.00 88 1017.7
20260906004438 75 61 3.0 3.0 0.00 0.00 0.00 88 1017.7
20260906003937 75 59 3.0 5.0 0.00 0.00 0.00 88 1017.7
20260906003438 75 61 3.0 5.0 0.00 0.00 0.00 88 1017.7
20260906002938 75 73 3.0 7.0 0.00 0.00 0.00 88 1017.7
20260906002439 75 73 3.0 7.0 0.00 0.00 0.00 88 1017.7
20260906001438 75 64 4.0 7.0 0.00 0.00 0.00 88 1017.7
20260906000938 75 67 4.0 7.0 0.00 0.00 0.00 88 1017.7
20260906000440 75 64 4.0 8.0 0.00 0.00 0.00 88 1017.7
20260905235937 75 65 3.0 7.0 0.00 0.00 0.00 88 1017.7
20260905235439 75 68 3.0 5.0 0.00 0.00 0.00 88 1017.7
20260905234939 75 67 2.0 5.0 0.00 0.00 0.00 88 1017.7
20260905233938 75 65 5.0 7.0 0.00 0.00 0.00 88 1017.7
20260905233438 75 64 5.0 7.0 0.00 0.00 0.00 88 1017.7
20260905232937 75 64 3.0 7.0 0.00 0.00 0.00 88 1017.7
20260905232437 75 73 2.0 3.0 0.00 0.00 0.00 87 1017.7
20260905231938 75 78 2.0 3.0 0.00 0.00 0.00 87 1017.6
20260905231438 75 80 3.0 6.0 0.00 0.00 0.00 87 1017.6
20260905230938 75 61 4.0 8.0 0.00 0.00 0.00 87 1017.6
20260905230438 75 67 5.0 8.0 0.00 0.00 0.00 88 1017.5
20260905225937 75 66 5.0 9.0 0.00 0.00 0.00 88 1017.5
20260905225438 75 64 5.0 8.0 0.00 0.00 0.00 88 1017.4
20260905224937 75 60 4.0 7.0 0.00 0.00 0.00 88 1017.4
20260905224437 75 67 3.0 6.0 0.00 0.00 0.00 88 1017.5
20260905223937 75 65 3.0 5.0 0.00 0.00 0.00 88 1017.4
20260905222938 75 63 4.0 7.0 0.00 0.00 0.00 88 1017.3
20260905222437 75 68 3.0 8.0 0.00 0.00 0.00 87 1017.2
20260905221938 76 66 4.0 8.0 0.00 0.00 0.00 86 1017.2
20260905221437 76 64 5.0 8.0 0.00 0.00 0.00 86 1017.1
20260905220937 76 65 4.0 7.0 0.00 0.00 0.00 85 1017.1
20260905220438 76 60 5.0 7.0 0.00 0.00 0.00 84 1017.1
20260905215938 76 64 3.0 7.0 0.00 0.00 0.00 84 1017.0
20260905215437 76 60 5.0 8.0 0.00 0.00 0.00 83 1017.0
20260905214937 76 66 3.0 7.0 0.00 0.00 0.00 82 1016.9
20260905214438 76 64 5.0 7.0 0.00 0.00 0.00 81 1016.9
20260905213937 77 67 4.0 7.0 0.00 0.00 0.00 80 1016.8
20260905213438 77 70 3.0 5.0 0.00 0.00 0.00 80 1016.8
20260905212937 77 67 3.0 5.0 0.00 0.00 0.00 79 1016.7
20260905212438 77 65 3.0 7.0 0.00 0.00 0.00 78 1016.7
20260905211937 77 65 5.0 8.0 0.00 0.00 0.00 77 1016.6
20260905211439 78 74 6.0 8.0 0.00 0.00 0.00 76 1016.5
20260905210938 78 66 5.0 7.0 0.00 0.00 0.00 75 1016.5
20260905205444 78 63 5.0 8.0 0.00 0.00 0.00 74 1016.2
20260905203953 78 66 6.0 10.0 0.00 0.00 0.00 77 1016.2
20260905202944 78 93 3.0 7.0 0.00 0.00 0.00 76 1015.9
20260905202437 78 87 3.0 7.0 0.00 0.00 0.00 76 1015.9
20260905201937 78 83 3.0 5.0 0.00 0.00 0.00 75 1015.9
20260905200940 78 80 3.0 6.0 0.00 0.00 0.00 75 1015.8
20260905200437 78 83 2.0 5.0 0.00 0.00 0.00 75 1015.7